Location: Earls Croome
(52.0667°N, 2.2000°W)
Time: 12:41:56
(UTC+00:00)

STARLINK-48 - Pass Details

Date: 17 November 2019
Orbit: 506 x 509 km, 53.0° (Epoch: 16 December)

Event Time Altitude Azimuth Distance (km) Brightness Sun altitude
Exits shadow 04:36:03 22° 145° (SE) 1,128 5.5 -26.7°
Drops below altitude 10° 04:39:18 10° 89° (E) 1,716 7.2 -26.2°
Enters shadow 05:37:41 -66° 248° (WSW) 12,207 10.4 -17.2°
Maximum altitude 06:14:23 72° 161° (SSE) 534 3.6 -11.7°
